Location: Alexandria
(38.8050°N, 77.0470°W)
Time: 00:17:49
(UTC-05:00)

Tiangong 2 - Pass Details

Date: 13 November 2017
Orbit: 386 x 392 km, 42.8° (Epoch: 22 November)

Event Time Altitude Azimuth Distance (km) Brightness Sun altitude
Rises 17:17:11 0° 289° (WNW) 2,276 5.9 -4.7°
Reaches altitude 10° 17:19:17 10° 286° (WNW) 1,417 4.9 -5.1°
Maximum altitude 17:22:26 60° 206° (SSW) 446 1.6 -5.7°
Drops below altitude 10° 17:25:34 10° 125° (SE) 1,408 3.6 -6.2°
Sets 17:27:39 0° 121° (ESE) 2,259 4.6 -6.6°
Enters shadow 17:27:49 -1° 121° (ESE) 2,330 4.6 -6.7°
